Regional Weather Roundup
Issued by NWS

Home | Current Version | Previous Version | Graphics & Text | Print | Product List | Glossary Off
Versions: 1 2 3 4 5 6 7 8 9 10 11 12 13 14 15 16 17 18 19 20 21 22 23 24 25 26 27 28 29 30 31 32 33 34 35 36 37 38 39 40 41 42 43 44 45 46 47 48 49 50

000
ASUS43 KMKX 260500
RWRWI

WISCONSIN REGIONAL WEATHER ROUNDUP
NATIONAL WEATHER SERVICE MILWAUKEE/SULLIVAN WI
1100 PM CST SAT FEB 25 2017

NOTE: "FAIR" INDICATES FEW OR NO CLOUDS BELOW 12,000 FEET WITH NO
SIGNIFICANT WEATHER AND/OR OBSTRUCTIONS TO VISIBILITY.

WIZ001-002-006>008-014>016-023>028-260600-
NORTHWEST WISCONSIN

CITY           SKY/WX    TMP DP  RH WIND       PRES   REMARKS
SUPERIOR ARPT  LGT SNOW  27  26  97 CALM      29.75F
ASHLAND        CLOUDY    27  18  69 S6        29.76F WCI  20
HAYWARD        CLOUDY    27  18  69 S12       29.76S WCI  17
SIREN          CLOUDY    28  19  69 SW15      29.77F WCI  17
CUMBERLAND     CLOUDY    23  18  80 SW12G18   29.80S WCI  12
RICE LAKE      CLOUDY    24  17  74 S12G17    29.83S WCI  13
CHETEK         CLOUDY    24  16  72 SW10G16   29.83S WCI  13
LADYSMITH      CLOUDY    22  17  79 S10       29.83S WCI  11
EAU CLAIRE     NOT AVBL
MENOMONIE      CLEAR     20  13  73 S6        29.87S WCI  13
NEW RICHMOND   CLOUDY    22  16  75 SW15      29.83S WCI   9
OSCEOLA        CLOUDY    26  18  73 S9        29.84S WCI  16
$$

WIZ003>005-009-010-017-018-260600-
NORTH CENTRAL WISCONSIN

CITY           SKY/WX    TMP DP  RH WIND       PRES   REMARKS
MANITOWISH WTR CLOUDY    18  11  73 S8        29.75F WCI   8
ARBOR VITAE    PTCLDY    19  11  72 SW6         N/A  WCI  11
WOODRUFF       PTCLDY    19  11  72 SW6         N/A  WCI  11
RHINELANDER    CLEAR     17   8  67 SW9       29.80S WCI   6
EAGLE RIVER    CLOUDY    19   9  65 SW9       29.77F WCI   7
LAND O LAKES   CLOUDY    18  11  75 SW3       29.78S
PHILLIPS       CLOUDY    19  13  76 SW7       29.78F WCI  10
TOMAHAWK       CLEAR     16   9  75 CALM      29.82S
MEDFORD        MOCLDY    15   9  75 SW12      29.83S WCI   2
MERRILL        NOT AVBL
$$

WIZ029-030-035-036-043>047-260600-
CENTRAL WISCONSIN

CITY           SKY/WX    TMP DP  RH WIND       PRES   REMARKS
WAUSAU         PTCLDY    17  10  74 S6        29.86S WCI   9
MOSINEE        CLEAR     16  12  86 S9        29.88S WCI   4
MARSHFIELD     CLEAR     17  10  74 SW10      29.86F WCI   5
STEVENS POINT  CLEAR     14   8  77 S6        29.91S WCI   5
WAUPACA        CLEAR     18   9  70 SW6       29.94S WCI   9
WAUTOMA        CLEAR     14  10  84 MISG        N/A
WISC RAPIDS    CLEAR     18  11  74 SW9       29.92S WCI   7
CAMP DOUGLAS   NOT AVBL
$$

WIZ011>013-019>022-031-037>040-048>050-260600-
NORTHEAST WISCONSIN

CITY           SKY/WX    TMP DP  RH WIND       PRES   REMARKS
ANTIGO         CLEAR     12   6  74 SW8       29.84S WCI   1
SHAWANO        CLEAR     17   9  70 CALM      29.91S
OCONTO         CLEAR     17   8  65 SW7       29.91S WCI   8
STURGEON BAY   CLEAR     17  10  74 SW9       29.92R WCI   6
GREEN BAY      CLEAR     20  11  68 SW10      29.93S WCI   9
MANITOWOC      NOT AVBL
APPLETON       PTCLDY    19   9  63 SW10      29.92S WCI   8
CLINTONVILLE   CLEAR     12   5  73 S3        29.92S
OSHKOSH        CLEAR     19  10  68 SW7       29.94S WCI  10
$$

WIZ032>034-041-042-053>061-260600-
SOUTHWEST WISCONSIN

CITY           SKY/WX    TMP DP  RH WIND       PRES   REMARKS
LA CROSSE      CLOUDY    23  14  68 S7        29.95F WCI  15
SPARTA         MOCLDY    20  13  74 S3        29.95F
VIROQUA        CLOUDY    19  13  80 SW6       29.93F WCI  10
BOSCOBEL       CLOUDY    22  14  71 SW3       30.00F
PRAIRIE DU CHI CLOUDY    24  15  69 S3        30.00S
PLATTEVILLE    CLOUDY    19  17  90 S5        30.00F WCI  13
$$

WIZ056-057-062-063-064-067-068-260600-
SOUTH CENTRAL WISCONSIN

CITY           SKY/WX    TMP DP  RH WIND       PRES   REMARKS
REEDSBURG      MOCLDY    19  13  75 SW6       29.97S WCI  11
BARABOO/DELLS  CLEAR     19  12  76 SW6       29.97S WCI  10
LONE ROCK      NOT AVBL
MINERAL POINT  PTCLDY    21  18  86 CALM      29.98S
MADISON        PTCLDY    20  13  74 SW7       29.99S WCI  11
MIDDLETON      CLEAR     20  15  81 SW3       30.00S
WATERTOWN      CLEAR     19  14  82 SW5       29.99S WCI  12
MONROE         CLEAR     21  18  86 SW9       29.99F WCI  11
JANESVILLE     CLEAR     23  16  74 W3        30.02S
$$

WIZ051-052-058>065-066-070>072-260600-
SOUTHEAST WISCONSIN

CITY           SKY/WX    TMP DP  RH WIND       PRES   REMARKS
MILWAUKEE      PTCLDY    24  11  57 W9        30.00R WCI  14
WAUKESHA       CLOUDY    19  12  73 SW7       30.00R WCI  10
MILWAUKEE/TIMM PTCLDY    21  10  63 W8        30.00R WCI  12
RACINE         CLOUDY    22  13  68 W9        30.02R WCI  12
KENOSHA        CLOUDY    23  14  68 W8        30.01S WCI  14
FOND DU LAC    CLEAR     17   9  70 SW7       29.97R WCI   8
SHEBOYGAN      CLEAR     19  10  68 W13       29.96R WCI   6
WEST BEND      CLEAR     19  14  79 W5        29.97S WCI  13
JUNEAU         CLEAR     16  12  84 SW3       29.99R
$$

LSZ147-162-260600-
LAKE SUPERIOR

STATION/POSITION TIME  TEMP    WIND        PRES    WAVE
                       AIR SEA DIR/SP/G            HT/PER
                 (UTC) (F)     (DEG/KT/KT) (MB)    (FT/S)
DEVILS ISLAND    0400   28     210/ 16/ 19 1008.0F
PORT WING        0430   27     190/  6/ 10 1007.8F
SAXON HARBOR     0430   26     200/  6/ 12 1008.5R
$$

LMZ867-665-643>646-260600-
LAKE MICHIGAN

STATION/POSITION TIME  TEMP    WIND        PRES    WAVE
                       AIR SEA DIR/SP/G            HT/PER
                 (UTC) (F)     (DEG/KT/KT) (MB)    (FT/S)
NORTHPORT PIER   0440   20        CALM     1012.2R
SISTER BAY       0405   20        CALM       N/A
KEWAUNEE LAKESHO 0430   20     270/  9/ 13 1013.1R
SHEBOYGAN LAKESH 0400   22     270/ 14/ 17 1015.3R
PORT WASHINGTON  0440   22     270/  9/ 16 1016.3S
MILWAUKEE LAKESH 0430   24     280/ 13/ 15   N/A
KENOSHA   LAKESH 0400   24     270/ 10/ 14 1016.3
$$

TC  - TEMPERATURE IN CELSIUS
VSB - VISIBILITY IN STATUTE MILES
WCI - WIND CHILL INDEX
HX  - HEAT INDEX




USA.gov is the U.S. government's official web portal to all federal, state and local government web resources and services.